TimeCDT,TemperatureF,Dew PointF,Humidity,Sea Level PressureIn,VisibilityMPH,Wind Direction,Wind SpeedMPH,Gust SpeedMPH,PrecipitationIn,Events,Conditions,WindDirDegrees,DateUTC
12:54 AM,10.0,-2.9,56,30.48,10.0,NE,9.2,-,N/A,,Clear,50,2014-03-16 05:54:00
1:54 AM,8.1,-2.9,61,30.50,10.0,NNE,5.8,-,N/A,,Clear,30,2014-03-16 06:54:00
2:54 AM,7.0,-4.0,61,30.51,10.0,NE,6.9,-,N/A,,Clear,40,2014-03-16 07:54:00
3:54 AM,6.1,-5.1,60,30.52,10.0,NE,8.1,-,N/A,,Clear,50,2014-03-16 08:54:00
4:54 AM,5.0,-5.1,63,30.52,10.0,NE,5.8,-,N/A,,Clear,50,2014-03-16 09:54:00
5:54 AM,3.0,-5.1,69,30.52,10.0,NNE,5.8,-,N/A,,Clear,30,2014-03-16 10:54:00
6:54 AM,1.9,-5.1,72,30.53,10.0,Calm,Calm,-,N/A,,Clear,0,2014-03-16 11:54:00
7:54 AM,1.9,-5.1,72,30.53,10.0,Calm,Calm,-,N/A,,Clear,0,2014-03-16 12:54:00
8:54 AM,3.9,-5.1,66,30.53,10.0,East,8.1,-,N/A,,Clear,80,2014-03-16 13:54:00
9:54 AM,6.1,-4.0,63,30.53,10.0,ESE,6.9,-,N/A,,Clear,120,2014-03-16 14:54:00
10:54 AM,9.0,-4.0,56,30.52,10.0,ENE,3.5,-,N/A,,Clear,70,2014-03-16 15:54:00
11:54 AM,12.0,-2.0,53,30.51,10.0,Calm,Calm,-,N/A,,Clear,0,2014-03-16 16:54:00
12:54 PM,14.0,-4.0,45,30.48,10.0,Calm,Calm,-,N/A,,Clear,0,2014-03-16 17:54:00
1:54 PM,18.0,-2.9,40,30.45,10.0,Calm,Calm,-,N/A,,Clear,0,2014-03-16 18:54:00
2:54 PM,19.0,-2.9,38,30.40,10.0,South,3.5,-,N/A,,Clear,190,2014-03-16 19:54:00
3:54 PM,19.9,-2.9,37,30.37,10.0,Calm,Calm,-,N/A,,Clear,0,2014-03-16 20:54:00
4:54 PM,21.0,-2.0,36,30.35,10.0,South,5.8,-,N/A,,Clear,190,2014-03-16 21:54:00
5:54 PM,21.0,-7.1,29,30.32,10.0,SE,4.6,-,N/A,,Clear,130,2014-03-16 22:54:00
6:54 PM,19.0,-2.0,40,30.31,10.0,SSE,5.8,-,N/A,,Clear,160,2014-03-16 23:54:00
7:54 PM,18.0,-2.0,41,30.29,10.0,South,9.2,-,N/A,,Clear,180,2014-03-17 00:54:00
8:54 PM,17.1,-2.0,43,30.27,10.0,South,6.9,-,N/A,,Clear,170,2014-03-17 01:54:00
9:54 PM,15.1,-0.9,49,30.25,10.0,SSE,4.6,-,N/A,,Clear,150,2014-03-17 02:54:00
10:54 PM,14.0,1.0,56,30.21,10.0,SE,9.2,-,N/A,,Clear,140,2014-03-17 03:54:00
11:54 PM,14.0,1.9,59,30.18,10.0,South,6.9,-,N/A,,Partly Cloudy,170,2014-03-17 04:54:00